Weather History for Fort Lauderdale, FL

Change the Weather History Date:

Wednesday, August 13, 2014

  Actual Average Record
Temperature  
Mean Temperature 86 °F -  
Max Temperature 93 °F 92 °F 96 °F (1987)
Min Temperature 78 °F 74 °F 69 °F (1978)
Cooling Degree Days 20    
Growing Degree Days 36 (Base 50)    
Moisture  
Dew Point 75 °F    
Average Humidity 73    
Maximum Humidity 90    
Minimum Humidity 52    
Precipitation  
Precipitation 0.00 in - - ()
Sea Level Pressure  
Sea Level Pressure 30.02 in    
Wind  
Wind Speed 4 mph (SSE)    
Max Wind Speed 15 mph    
Max Gust Speed -    
Visibility 10 miles    
Events      
Averages and records for this station are not official NWS values.
T = Trace of Precipitation, MM = Missing Value Source: NWS Daily Summary

Daily Weather History Graph

Daily Weather History Graph

Search for Another Location

Airport:

Trip Planner

Search our weather history database for the weather conditions in past years. The results will help you decide how hot, cold, wet, or windy it might be!

Date:

Astronomy

Aug. 13, 2014 Rise Set
Actual Time 6:52 AM EDT 7:58 PM EDT
Civil Twilight 6:27 AM EDT 8:22 PM EDT
Nautical Twilight 5:59 AM EDT 8:51 PM EDT
Astronomical Twilight 5:29 AM EDT 9:20 PM EDT
Moon 10:10 PM EDT (8/13) 9:54 AM EDT (8/13)
Length of Visible Light 13h 54m
Length of Day
13h 06m
Waning Gibbous, 88% of the Moon is Illuminated
Aug 13
Waning Gibbous
Aug 17
Last Quarter
Aug 25
New
Sep 2
First Quarter
Sep 8
Full

Hourly Weather History & Observations

Time (EDT) Temp. Heat Index Dew Point Humidity Pressure Visibility Wind Dir Wind Speed Gust Speed Precip Events Conditions
12:53 AM 80.1 °F 85.1 °F 75.0 °F 85% 30.04 in 10.0 mi Calm Calm - N/A   Clear
1:53 AM 78.8 °F - 75.2 °F 89% 30.02 in 10.0 mi Calm Calm - N/A   Clear
2:53 AM 80.1 °F 85.4 °F 75.9 °F 87% 30.01 in 10.0 mi Calm Calm - N/A   Clear
3:53 AM 79.0 °F - 75.9 °F 90% 30.01 in 10.0 mi Calm Calm - N/A   Clear
4:53 AM 79.0 °F - 75.9 °F 90% 30.01 in 10.0 mi Calm Calm - N/A   Clear
5:53 AM 79.0 °F - 75.9 °F 90% 30.01 in 10.0 mi Calm Calm - N/A   Clear
6:53 AM 79.0 °F - 75.9 °F 90% 30.02 in 10.0 mi Calm Calm - N/A   Partly Cloudy
9:53 AM 87.1 °F 98.8 °F 77.0 °F 72% 30.05 in 10.0 mi South 5.8 mph - N/A   Scattered Clouds
10:53 AM 89.6 °F 99.8 °F 75.2 °F 62% 30.05 in 10.0 mi SW 6.9 mph - N/A   Scattered Clouds
11:53 AM 91.0 °F 100.4 °F 73.9 °F 57% 30.04 in 10.0 mi South 8.1 mph - N/A   Scattered Clouds
12:53 PM 91.0 °F 101.6 °F 75.0 °F 59% 30.04 in 10.0 mi SE 8.1 mph - N/A   Scattered Clouds
1:53 PM 91.0 °F 102.9 °F 75.9 °F 61% 30.02 in 10.0 mi SE 10.4 mph - N/A   Scattered Clouds
2:53 PM 91.0 °F 99.3 °F 73.0 °F 55% 30.01 in 10.0 mi SE 15.0 mph - N/A   Scattered Clouds
3:53 PM 93.2 °F 102.4 °F 73.4 °F 52% 29.99 in 10.0 mi SE 12.7 mph - N/A   Partly Cloudy
4:53 PM 90.0 °F 101.3 °F 75.9 °F 63% 29.99 in 10.0 mi ESE 13.8 mph - N/A   Scattered Clouds
5:53 PM 90.0 °F 100.2 °F 75.0 °F 61% 29.99 in 10.0 mi SE 11.5 mph - N/A   Scattered Clouds
6:53 PM 88.0 °F 98.5 °F 75.9 °F 67% 29.99 in 10.0 mi South 10.4 mph - N/A   Clear
7:53 PM 86.0 °F 96.0 °F 75.9 °F 72% 30.01 in 10.0 mi South 3.5 mph - N/A   Scattered Clouds
8:53 PM 82.0 °F 87.9 °F 73.9 °F 76% 30.02 in 10.0 mi NNW 3.5 mph - N/A   Clear
9:53 PM 82.0 °F 88.6 °F 75.0 °F 79% 30.04 in 10.0 mi Calm Calm - N/A   Clear
10:53 PM 82.0 °F 89.4 °F 75.9 °F 82% 30.05 in 10.0 mi NNE 3.5 mph - N/A   Partly Cloudy